Location: Eymir
(36.7333°N, 29.7833°E)
Time: 18:35:25
(UTC+00:00)

Cosmos 1833 Rocket - Pass Details

Date: 14 January 2026
Orbit: 832 x 838 km, 71.0° (Epoch: 17 February)

Event Time Altitude Azimuth Distance (km) Brightness Sun altitude
Exits shadow 03:43:11 17° 331° (NNW) 2,005 4.3 -17.7°
Maximum altitude 03:47:33 67° 252° (WSW) 901 2.6 -16.8°
Drops below altitude 10° 03:53:05 10° 170° (S) 2,433 5.4 -15.8°
Sets 03:55:31 0° 168° (SSE) 3,362 6.2 -15.3°
